Weather History for TAPA - February, 2013

Change the Weather History Date:

Saturday, February 23, 2013

  Actual Average Record
Temperature  
Mean Temperature 78 °F -  
Max Temperature 82 °F 81 °F 84 °F (1998)
Min Temperature 74 °F 72 °F 32 °F (2015)
Cooling Degree Days 13    
Growing Degree Days 28 (Base 50)    
Moisture  
Dew Point 68 °F    
Average Humidity 70    
Maximum Humidity 78    
Minimum Humidity 58    
Precipitation  
Precipitation 0.00 in - - ()
Sea Level Pressure  
Sea Level Pressure 30.00 in    
Wind  
Wind Speed 11 mph ()    
Max Wind Speed 17 mph    
Max Gust Speed -    
Visibility 9.4 miles    
Events      
Averages and records for this station are not official NWS values.
T = Trace of Precipitation, MM = Missing Value Source: Averaged Metar Reports

Daily Weather History Graph

Daily Weather History Graph

Search for Another Location

Airport or City:

Trip Planner

Search our weather history database for the weather conditions in past years. The results will help you decide how hot, cold, wet, or windy it might be!

Date:

Astronomy

Feb. 23, 2013 Rise Set
Actual Time 6:28 AM AST 6:12 PM AST
Civil Twilight 6:07 AM AST 6:34 PM AST
Nautical Twilight 5:41 AM AST 6:59 PM AST
Astronomical Twilight 5:16 AM AST 7:24 PM AST
Moon 4:26 PM AST (2/23) 4:36 AM AST (2/23)
Length of Visible Light 12h 26m
Length of Day
11h 43m
Waxing Gibbous, 95% of the Moon is Illuminated
Feb 23
Waxing Gibbous
Feb 25
Full
Mar 4
Last Quarter
Mar 11
New
Mar 19
First Quarter

Hourly Weather History & Observations

Time (AST) Temp. Heat Index Dew Point Humidity Pressure Visibility Wind Dir Wind Speed Gust Speed Precip Events Conditions
12:00 AM 75.2 °F - 68.0 °F 78% 30.01 in 6.2 mi ENE 10.4 mph - N/A   Scattered Clouds
1:00 AM 75.2 °F - 68.0 °F 78% 30.01 in 6.2 mi NE 13.8 mph - N/A   Mostly Cloudy
2:00 AM 76 °F - 67 °F 68% 30.00 in 17 mi ENE 15.0 mph - -   Haze
2:00 AM 75.2 °F - 68.0 °F 78% 30.04 in 6.2 mi ENE 15.0 mph - N/A   Scattered Clouds
3:00 AM 75.2 °F - 68.0 °F 78% 29.98 in 6.2 mi East 8.1 mph - N/A   Mostly Cloudy
4:00 AM 75.2 °F - 68.0 °F 78% 29.98 in 6.2 mi ENE 12.7 mph - N/A   Scattered Clouds
5:00 AM 75 °F - 67 °F 68% 29.99 in 17 mi ENE 9.2 mph - -   Haze
5:00 AM 75.2 °F - 66.2 °F 73% 29.98 in 6.2 mi ENE 9.2 mph - N/A   Scattered Clouds
6:00 AM 75.2 °F - 66.2 °F 73% 29.98 in 6.2 mi East 9.2 mph - N/A   Scattered Clouds
7:00 AM 75.2 °F - 68.0 °F 78% 30.01 in 6.2 mi ENE 11.5 mph - N/A   Scattered Clouds
8:00 AM 78 °F - 67 °F 61% 30.03 in 19 mi ENE 13.8 mph - -   Mostly Cloudy
8:00 AM 78.8 °F - 68.0 °F 69% 30.01 in 6.2 mi ENE 13.8 mph - N/A   Scattered Clouds
9:00 AM 78.8 °F - 68.0 °F 69% 30.04 in 6.2 mi ENE 12.7 mph - N/A   Scattered Clouds
10:00 AM 78.8 °F - 68.0 °F 69% 30.04 in 6.2 mi ENE 11.5 mph - N/A   Mostly Cloudy
11:00 AM 79 °F - 68 °F 62% 30.05 in 19 mi ENE 15.0 mph - -   Partly Cloudy
11:00 AM 78.8 °F - 68.0 °F 69% 30.04 in 6.2 mi ENE 15.0 mph - N/A   Scattered Clouds
12:00 PM 80.6 °F 83.9 °F 69.8 °F 70% 30.01 in 6.2 mi ENE 12.7 mph - N/A   Scattered Clouds
1:00 PM 80.6 °F 83.2 °F 68.0 °F 65% 30.01 in 6.2 mi ENE 12.7 mph - N/A   Mostly Cloudy
2:00 PM 81 °F - 69 °F 58% 29.99 in 19 mi East 11.5 mph - -   Mostly Cloudy
2:00 PM 80.6 °F 83.2 °F 68.0 °F 65% 29.98 in 6.2 mi East 11.5 mph - N/A   Mostly Cloudy
3:00 PM 80.6 °F 83.2 °F 68.0 °F 65% 29.98 in 6.2 mi ENE 13.8 mph - N/A   Scattered Clouds
4:00 PM 78.8 °F - 68.0 °F 69% 29.95 in 6.2 mi ENE 12.7 mph - N/A   Mostly Cloudy
5:00 PM 78 °F - 67 °F 61% 29.98 in 19 mi ENE 13.8 mph - -   Mostly Cloudy
5:00 PM 78.8 °F - 68.0 °F 69% 29.98 in 6.2 mi ENE 13.8 mph - N/A   Mostly Cloudy
6:00 PM 77.0 °F - 68.0 °F 74% 29.98 in 6.2 mi NE 17.3 mph - N/A   Scattered Clouds
7:00 PM 77.0 °F - 68.0 °F 74% 29.98 in 6.2 mi ENE 16.1 mph - N/A   Partly Cloudy
8:00 PM 76 °F - 67 °F 67% 30.00 in 19 mi ENE 12.7 mph - -   Mostly Cloudy
8:00 PM 77.0 °F - 68.0 °F 74% 29.98 in 6.2 mi ENE 12.7 mph - N/A   Mostly Cloudy
10:00 PM 75.2 °F - 66.2 °F 73% 30.01 in 6.2 mi ENE 11.5 mph - N/A   Scattered Clouds
11:00 PM 76 °F - 66 °F 64% 30.02 in 19 mi ENE 11.5 mph - -   Partly Cloudy
11:00 PM 75.2 °F - 66.2 °F 73% 30.01 in 6.2 mi ENE 11.5 mph - N/A   Scattered Clouds